Location: ????????
(55.6189°N, 38.3031°E)
Time: 02:53:19
(UTC+00:00)

SAR-Lupe-2 - Pass Details

Date: 15 November 2019
Orbit: 480 x 485 km, 98.2° (Epoch: 29 November)

Event Time Altitude Azimuth Distance (km) Brightness Sun altitude
Rises 03:59:45 0° 168° (SSE) 2,535 7.7 -8.5°
Reaches altitude 10° 04:01:49 10° 170° (S) 1,660 6.7 -8.2°
Maximum altitude 04:05:22 71° 256° (WSW) 516 3.5 -7.8°
Drops below altitude 10° 04:08:58 10° 341° (NNW) 1,677 5.9 -7.3°
Sets 04:11:03 0° 343° (NNW) 2,564 6.9 -7.0°
